MAZAALAI (NUMSAT-1) (42822 NORAD) Tracking and Keplerian Element Data

This shows tracking and keplerian element data for the satellite.

Feedback or suggestion? Click here.




ElementValue
Catalog42822
NameMAZAALAI (NUMSAT-1)
Epoch Orbit5867
Epoch Day198.91127269
Epoch Year2018
RAAN204.9165
Inclination51.6336
Eccentricity0.0002378
Argument of Perigee318.8531
Mean Anonmoly41.2286
Mean Motion15.68690861
Decay Rate0.00017472
L11 42822U 98067MW 18198.91127269 .00017472 00000-0 15486-3 0 9990
L22 42822 51.6336 204.9165 0002378 318.8531 41.2286 15.68690861 58679

Live tracking and technical data element details for MAZAALAI (NUMSAT-1) (NORAD 42822). MAZAALAI (NUMSAT-1) can be tracked NOW for your location showing map with azimuth and elevation plus other details from your city location.

Track the satellite on the map from your city or location and see movement details for azimuth, elevation, latitude, longitude, range, height, and movement on the map or in text.







IsCatalogInMostPopularTable: catalog: 42822, numindb: 97
Update: records affected: 1



GetName: 42822 MAZAALAI (NUMSAT-1)

Hit Count: updated at: Fri, 20 Jul 2018 20:28:13 GMT